User: anonymous   Login
Location: Fort Wayne
(41.1310°N, 85.1290°W)
Time: 02:50:58
(UTC-04:00)
Language:

COSMOS 2406 - Orbit

View from above orbital plane
View from above orbital plane
View from above satellite
View from above satellite

Ground track
Ground track

The orbit data is extracted from the following two-line orbital elements,

1 28352U 04021A   16204.94075916 +.00000343 +00000-0 +21527-3 0  9991
2 28352 071.0035 092.0985 0016623 243.7997 116.1415 14.11449729624340
Epoch (UTC): 22 July 2016 22:34:41
Eccentricity: 0.0016623
inclination: 71.0035°
perigee height: 842 km
apogee height: 866 km
right ascension of ascending node: 92.0985°
argument of perigee: 243.7997°
revolutions per day: 14.11449729
mean anomaly at epoch: 116.1415°
orbit number at epoch: 62434

The dashed part of the orbit path shows where the satellite is in the earth's shadow,  

DLR